This demonstration page uses our WeatherBlox Daily Observations layout. Learn more.

Left ArrowRight Arrow

Hourly Observations for May 29, 2015

Temp ( °F °C ) Dew Point ( °F °C ) Humidity (%) Winds ( mph kmh ) Pressure ( in mb ) Visibility ( mi km ) Precip ( " mm )
12:16 am 00:16 Clear 70 21 57 14 64 64 S 5 7 30.15 1021 10 16.0934 N/A
12:36 am 00:36 Clear 70 21 57 14 64 64 SSE 5 7 30.15 1021 10 16.0934 N/A
12:56 am 00:56 Clear 70 21 57 14 64 64 S 5 7 30.12 1020 10 16.0934 N/A
1:16 am 01:16 Clear 70 21 57 14 64 64 S 5 7 30.12 1020 10 16.0934 N/A
1:36 am 01:36 Clear 68 20 59 15 73 73 SSE 5 7 30.12 1020 10 16.0934 N/A
1:56 am 01:56 Clear 68 20 61 16 78 78 SSE 6 9 30.12 1020 10 16.0934 N/A
2:17 am 02:17 Clear 68 20 63 17 83 83 S 5 7 30.15 1021 10 16.0934 N/A
2:36 am 02:36 Clear 68 20 64 18 88 88 S 5 7 30.12 1020 10 16.0934 N/A
2:56 am 02:56 Clear 66 19 66 19 100 100 SSE 3 6 30.12 1020 10 16.0934 N/A
3:16 am 03:16 Clear 66 19 N/A N/A S 3 6 30.12 1020 10 16.0934 N/A
3:36 am 03:36 Clear 66 19 N/A N/A SSE 5 7 30.12 1020 10 16.0934 N/A
3:57 am 03:57 Clear 66 19 N/A N/A Calm 30.12 1020 10 16.0934 N/A
4:16 am 04:16 Clear 64 18 N/A N/A Calm 30.12 1020 7 11.26538 N/A
4:36 am 04:36 Clear 64 18 N/A N/A SE 5 7 30.12 1020 7 11.26538 N/A
4:56 am 04:56 Clear 64 18 N/A N/A SSE 3 6 30.12 1020 7 11.26538 N/A
5:16 am 05:16 Clear 64 18 N/A N/A SE 3 6 30.12 1020 7 11.26538 N/A
5:36 am 05:36 Clear 64 18 N/A N/A SE 3 6 30.12 1020 7 11.26538 N/A
5:56 am 05:56 Clear 64 18 N/A N/A SE 5 7 30.12 1020 7 11.26538 N/A
6:16 am 06:16 Clear 64 18 N/A N/A SE 7 11 30.12 1020 7 11.26538 N/A
6:36 am 06:36 Sunny 64 18 N/A N/A SE 6 9 30.12 1020 7 11.26538 N/A
6:56 am 06:56 Sunny 64 18 N/A N/A SE 6 9 30.12 1020 7 11.26538 N/A
7:16 am 07:16 Sunny 64 18 N/A N/A SE 5 7 30.12 1020 7 11.26538 N/A
7:36 am 07:36 Sunny 66 19 N/A N/A SSE 5 7 30.12 1020 7 11.26538 N/A
7:56 am 07:56 Sunny 68 20 N/A N/A SE 8 13 30.12 1020 7 11.26538 N/A
8:16 am 08:16 Sunny 68 20 N/A N/A SE 5 7 30.12 1020 7 11.26538 N/A
8:37 am 08:37 Sunny 70 21 N/A N/A SSE 12 19 30.12 1020 10 16.0934 N/A
8:56 am 08:56 Sunny 72 22 61 16 69 69 S 8 13 30.09 1019 10 16.0934 N/A
9:16 am 09:16 Sunny 72 22 61 16 69 69 S 9 15 30.09 1019 10 16.0934 N/A
9:36 am 09:36 Sunny 72 22 63 17 73 73 S 8 13 30.09 1019 10 16.0934 N/A
9:56 am 09:56 Sunny 73 23 61 16 65 65 SSW 8 13 30.12 1020 10 16.0934 N/A
10:16 am 10:16 Sunny 73 23 59 15 61 61 SSW 9 15 30.12 1020 10 16.0934 N/A
10:36 am 10:36 Sunny 75 24 59 15 57 57 SSW 9 15 30.12 1020 10 16.0934 N/A
10:56 am 10:56 Sunny 75 24 59 15 57 57 SSW 8 13 30.09 1019 10 16.0934 N/A
11:16 am 11:16 Sunny 77 25 57 14 51 51 S 9 15 30.09 1019 10 16.0934 N/A
11:37 am 11:37 Sunny 79 26 55 13 45 45 S 8 13 30.09 1019 10 16.0934 N/A
11:56 am 11:56 Sunny 81 27 55 13 42 42 SSW 10 17 30.09 1019 10 16.0934 N/A
12:16 pm 12:16 Partly Cloudy 82 28 55 13 40 40 S 9 15 30.09 1019 10 16.0934 N/A
12:36 pm 12:36 Partly Cloudy 82 28 55 13 40 40 SSW 10 17 30.09 1019 10 16.0934 N/A
12:56 pm 12:56 Partly Cloudy 81 27 55 13 42 42 SSW 13 20 30.09 1019 10 16.0934 N/A
1:16 pm 13:16 Mostly Cloudy 77 25 61 16 57 57 S 16 26 30.09 1019 5 8.0467 N/A
1:36 pm 13:36 Partly Cloudy 77 25 68 20 74 74 S 7 11 30.09 1019 10 16.0934 N/A
1:56 pm 13:56 Sunny 81 27 63 17 54 54 S 10 17 30.06 1018 10 16.0934 N/A
2:16 pm 14:16 Sunny 82 28 61 16 48 48 SSW 13 20 30.06 1018 10 16.0934 N/A
2:36 pm 14:36 Partly Cloudy 82 28 55 13 40 40 SSW 16 26 30.06 1018 10 16.0934 N/A
2:56 pm 14:56 Sunny 81 27 55 13 42 42 SSW 13 20 30.06 1018 10 16.0934 N/A
3:16 pm 15:16 Sunny 84 29 52 11 33 33 SSW 14 22 30.03 1017 10 16.0934 N/A
3:36 pm 15:36 Sunny 82 28 52 11 35 35 SW 13 20 30.03 1017 10 16.0934 N/A
3:56 pm 15:56 Sunny 84 29 52 11 33 33 SSW 16 26 30.03 1017 10 16.0934 N/A
4:16 pm 16:16 Sunny 86 30 50 10 29 29 SW 15 24 30.03 1017 10 16.0934 N/A
4:36 pm 16:36 Sunny 86 30 50 10 29 29 S 14 22 30.03 1017 10 16.0934 N/A
4:56 pm 16:56 Sunny 84 29 48 9 29 29 SSW 13 20 30 1016 10 16.0934 N/A
5:16 pm 17:16 Sunny 84 29 52 11 33 33 S 14 22 30 1016 10 16.0934 N/A
5:36 pm 17:36 Sunny 84 29 52 11 33 33 SSW 14 22 30 1016 10 16.0934 N/A
5:56 pm 17:56 Sunny 82 28 50 10 32 32 S 15 24 30 1016 10 16.0934 N/A
6:16 pm 18:16 Sunny 82 28 50 10 32 32 SSW 14 22 30 1016 10 16.0934 N/A
6:36 pm 18:36 Sunny 84 29 50 10 31 31 SSW 13 20 30 1016 10 16.0934 N/A
6:56 pm 18:56 Sunny 82 28 50 10 32 32 SSW 13 20 30 1016 10 16.0934 N/A
7:16 pm 19:16 Sunny 82 28 52 11 35 35 SSW 10 17 30 1016 10 16.0934 N/A
7:36 pm 19:36 Sunny 81 27 52 11 37 37 SSW 15 24 30 1016 10 16.0934 N/A
7:56 pm 19:56 Sunny 81 27 52 11 37 37 SSW 10 17 30 1016 10 16.0934 N/A
8:16 pm 20:16 Sunny 81 27 52 11 37 37 SSW 10 17 30 1016 10 16.0934 N/A
8:36 pm 20:36 Sunny 79 26 54 12 42 42 S 9 15 30 1016 10 16.0934 N/A
8:56 pm 20:56 Sunny 79 26 54 12 42 42 SSW 9 15 30 1016 10 16.0934 N/A
9:16 pm 21:16 Clear 77 25 54 12 44 44 SSW 10 17 30 1016 10 16.0934 N/A
9:36 pm 21:36 Clear 77 25 54 12 44 44 SSW 7 11 30 1016 10 16.0934 N/A
9:56 pm 21:56 Clear 75 24 55 13 50 50 SSW 7 11 30 1016 10 16.0934 N/A
10:16 pm 22:16 Clear 75 24 55 13 50 50 SSW 6 9 30.03 1017 10 16.0934 N/A
10:36 pm 22:36 Clear 73 23 55 13 53 53 SSW 6 9 30.03 1017 10 16.0934 N/A
10:56 pm 22:56 Clear 73 23 57 14 57 57 SSW 5 7 30.03 1017 10 16.0934 N/A
11:16 pm 23:16 Clear 73 23 57 14 57 57 SSW 6 9 30.03 1017 10 16.0934 N/A
11:36 pm 23:36 Clear 72 22 57 14 61 61 SSW 5 7 30.03 1017 10 16.0934 N/A
11:56 pm 23:56 Clear 72 22 59 15 65 65 S 6 9 30.03 1017 10 16.0934 N/A

Powered by AerisWeather